Weather History for KRQB - March, 2014

Change the Weather History Date:

Saturday, March 22, 2014

  Actual Average Record
Temperature  
Mean Temperature 24 °F -  
Max Temperature 32 °F 42 °F 81 °F (2012)
Min Temperature 16 °F 21 °F -4 °F (1989)
Degree Days  
Heating Degree Days 40    
Moisture  
Dew Point 22 °F    
Average Humidity 79    
Maximum Humidity 100    
Minimum Humidity 54    
Precipitation  
Precipitation 0.00 in - - ()
Sea Level Pressure  
Sea Level Pressure 30.01 in    
Wind  
Wind Speed 7 mph (NNW)    
Max Wind Speed 14 mph    
Max Gust Speed 21 mph    
Visibility 9 miles    
Events Snow    
Averages and records for this station are not official NWS values.
T = Trace of Precipitation, MM = Missing Value Source: NWS Daily Summary

Daily Weather History Graph

Daily Weather History Graph

Search for Another Location

Airport or City:

Trip Planner

Search our weather history database for the weather conditions in past years. The results will help you decide how hot, cold, wet, or windy it might be!

Date:

Astronomy

Mar. 22, 2014 Rise Set
Actual Time 7:41 AM EDT 7:56 PM EDT
Civil Twilight 7:12 AM EDT 8:25 PM EDT
Nautical Twilight 6:39 AM EDT 8:59 PM EDT
Astronomical Twilight 6:04 AM EDT 9:33 PM EDT
Moon 1:24 AM EDT (3/22) 11:15 AM EDT (3/22)
Length of Visible Light 13h 12m
Length of Day
12h 15m
Waning Gibbous, 65% of the Moon is Illuminated
Mar 22
Waning Gibbous
Mar 23
Last Quarter
Mar 30
New
Apr 7
First Quarter
Apr 15
Full

Hourly Weather History & Observations

Time (EDT) Temp. Windchill Dew Point Humidity Pressure Visibility Wind Dir Wind Speed Gust Speed Precip Events Conditions
12:15 AM 32.4 °F - 32.4 °F 100% 29.70 in 5.0 mi Calm Calm - N/A   Overcast
12:35 AM 32.2 °F 28.9 °F 32.2 °F 100% 29.70 in 5.0 mi NNE 3.5 mph - N/A   Overcast
12:54 AM 32.2 °F - 32.2 °F 100% 29.70 in 7.0 mi Calm Calm - N/A   Overcast
1:15 AM 32.0 °F 28.7 °F 32.0 °F 100% 29.70 in 7.0 mi NNE 3.5 mph - N/A   Overcast
1:35 AM 32.0 °F 26.4 °F 32.0 °F 100% 29.71 in 7.0 mi NNW 5.8 mph - N/A   Overcast
1:54 AM 32.0 °F 28.7 °F 32.0 °F 100% 29.72 in 5.0 mi North 3.5 mph - N/A   Overcast
2:15 AM 31.8 °F 27.3 °F 31.8 °F 100% 29.72 in 7.0 mi North 4.6 mph - N/A   Overcast
2:35 AM 32.0 °F 27.5 °F 32.0 °F 100% 29.73 in 7.0 mi NW 4.6 mph - N/A   Overcast
2:54 AM 32.0 °F 26.4 °F 32.0 °F 100% 29.75 in 7.0 mi WNW 5.8 mph - N/A   Overcast
3:15 AM 32.0 °F 26.4 °F 32.0 °F 100% 29.76 in 7.0 mi NNW 5.8 mph - N/A   Overcast
3:35 AM 32.0 °F 27.5 °F 32.0 °F 100% 29.77 in 7.0 mi NW 4.6 mph - N/A   Overcast
3:55 AM 32.2 °F 25.8 °F 32.2 °F 100% 29.78 in 7.0 mi NW 6.9 mph - N/A   Overcast
4:15 AM 32.4 °F 25.3 °F 32.2 °F 99% 29.79 in 10.0 mi NW 8.1 mph - N/A   Overcast
4:34 AM 32.2 °F 23.8 °F 32.0 °F 99% 29.80 in 10.0 mi NW 10.4 mph - N/A   Overcast
4:55 AM 32.0 °F 24.2 °F 32.0 °F 100% 29.81 in 10.0 mi NW 9.2 mph 16.1 mph N/A   Overcast
5:15 AM 32.2 °F 22.7 °F 32.0 °F 99% 29.82 in 10.0 mi NW 12.7 mph 17.3 mph N/A   Overcast
5:34 AM 32.2 °F 24.4 °F 32.0 °F 99% 29.83 in 10.0 mi NW 9.2 mph 16.1 mph N/A   Overcast
5:55 AM 32.4 °F 23.5 °F 31.8 °F 98% 29.85 in 10.0 mi NW 11.5 mph - N/A   Overcast
6:15 AM 32.2 °F 23.8 °F 31.1 °F 96% 29.86 in 10.0 mi NW 10.4 mph 16.1 mph N/A   Overcast
6:34 AM 32.0 °F 23.0 °F 30.2 °F 93% 29.89 in 10.0 mi NW 11.5 mph 18.4 mph N/A   Overcast
6:55 AM 32.0 °F 24.2 °F 30.6 °F 94% 29.90 in 10.0 mi WNW 9.2 mph - N/A   Overcast
7:15 AM 31.1 °F 23.7 °F 29.7 °F 94% 29.90 in 10.0 mi NW 8.1 mph 16.1 mph N/A   Overcast
7:34 AM 30.6 °F 23.1 °F 29.3 °F 95% 29.91 in 10.0 mi NW 8.1 mph - N/A   Scattered Clouds
7:55 AM 30.2 °F 23.4 °F 29.1 °F 96% 29.92 in 10.0 mi NW 6.9 mph - N/A   Scattered Clouds
8:14 AM 30.0 °F 23.2 °F 28.9 °F 96% 29.93 in 10.0 mi NNW 6.9 mph - N/A   Mostly Cloudy
8:35 AM 30.6 °F 23.1 °F 28.9 °F 94% 29.94 in 10.0 mi NW 8.1 mph - N/A   Scattered Clouds
8:55 AM 30.9 °F 24.3 °F 29.1 °F 93% 29.96 in 10.0 mi NW 6.9 mph - N/A   Mostly Cloudy
9:15 AM 31.6 °F 23.7 °F 29.5 °F 92% 29.97 in 10.0 mi NW 9.2 mph 16.1 mph N/A   Overcast
9:35 AM 32.0 °F 26.4 °F 27.1 °F 82% 29.99 in 10.0 mi NW 5.8 mph - N/A   Overcast
9:55 AM 32.2 °F 25.0 °F 27.5 °F 83% 30.00 in 10.0 mi NW 8.1 mph - N/A   Overcast
10:14 AM 32.0 °F 24.8 °F 27.5 °F 83% 30.00 in 10.0 mi NW 8.1 mph - N/A   Overcast
10:35 AM 32.0 °F 24.8 °F 28.0 °F 85% 30.02 in 10.0 mi WNW 8.1 mph - N/A   Overcast
10:55 AM 32.0 °F 24.8 °F 28.2 °F 86% 30.02 in 10.0 mi NW 8.1 mph - N/A   Overcast
11:14 AM 32.0 °F 25.6 °F 28.0 °F 85% 30.03 in 10.0 mi NNW 6.9 mph - N/A   Overcast
11:35 AM 32.0 °F 25.6 °F 27.9 °F 85% 30.04 in 10.0 mi NW 6.9 mph - N/A Snow Light Snow
11:55 AM 32.0 °F 24.8 °F 27.7 °F 84% 30.05 in 7.0 mi NW 8.1 mph 16.1 mph N/A Snow Light Snow
12:14 PM 31.6 °F 21.6 °F 26.8 °F 82% 30.06 in 5.0 mi North 13.8 mph 18.4 mph N/A Snow Light Snow
12:35 PM 30.2 °F 21.9 °F 23.5 °F 76% 30.07 in 5.0 mi NNW 9.2 mph 20.7 mph N/A Snow Light Snow
12:55 PM 30.2 °F 21.9 °F 23.2 °F 75% 30.08 in 7.0 mi NW 9.2 mph 18.4 mph N/A Snow Light Snow
1:14 PM 30.4 °F 20.5 °F 22.8 °F 73% 30.08 in 10.0 mi NNW 12.7 mph 17.3 mph N/A Snow Light Snow
1:35 PM 30.0 °F 20.0 °F 22.1 °F 72% 30.09 in 10.0 mi NW 12.7 mph 18.4 mph N/A   Overcast
1:55 PM 28.6 °F 17.7 °F 20.3 °F 71% 30.10 in 10.0 mi NW 13.8 mph 20.7 mph N/A   Overcast
2:14 PM 28.4 °F 19.1 °F 19.8 °F 70% 30.11 in 10.0 mi NW 10.4 mph 18.4 mph N/A   Overcast
2:35 PM 28.9 °F 18.6 °F 19.4 °F 68% 30.11 in 10.0 mi NW 12.7 mph 19.6 mph N/A   Overcast
2:55 PM 28.2 °F 17.7 °F 18.7 °F 67% 30.11 in 10.0 mi NW 12.7 mph 18.4 mph N/A   Overcast
3:14 PM 28.2 °F 18.9 °F 18.5 °F 67% 30.11 in 10.0 mi NNW 10.4 mph - N/A   Overcast
3:35 PM 28.4 °F 18.0 °F 18.7 °F 67% 30.11 in 10.0 mi NNW 12.7 mph 19.6 mph N/A   Overcast
3:55 PM 28.0 °F 18.6 °F 19.0 °F 69% 30.11 in 10.0 mi North 10.4 mph - N/A   Overcast
4:14 PM 27.5 °F 16.3 °F 16.9 °F 64% 30.12 in 10.0 mi NW 13.8 mph 19.6 mph N/A   Overcast
4:35 PM 27.5 °F 18.6 °F 17.1 °F 65% 30.12 in 10.0 mi NW 9.2 mph - N/A   Overcast
4:55 PM 28.2 °F 18.3 °F 16.2 °F 61% 30.12 in 10.0 mi NW 11.5 mph 17.3 mph N/A   Overcast
5:14 PM 27.5 °F 18.0 °F 16.0 °F 62% 30.13 in 10.0 mi NNW 10.4 mph 17.3 mph N/A   Overcast
5:35 PM 27.5 °F 18.6 °F 15.3 °F 60% 30.14 in 10.0 mi NW 9.2 mph 17.3 mph N/A   Overcast
5:55 PM 27.5 °F 18.0 °F 14.0 °F 57% 30.14 in 10.0 mi NNW 10.4 mph 16.1 mph N/A   Mostly Cloudy
6:15 PM 27.0 °F 16.7 °F 12.9 °F 56% 30.14 in 10.0 mi NW 11.5 mph 17.3 mph N/A   Scattered Clouds
6:35 PM 25.9 °F 16.6 °F 12.7 °F 58% 30.16 in 10.0 mi NW 9.2 mph 16.1 mph N/A   Scattered Clouds
6:55 PM 25.5 °F 14.3 °F 10.9 °F 54% 30.16 in 10.0 mi NNW 12.7 mph 17.3 mph N/A   Scattered Clouds
7:15 PM 24.8 °F 14.6 °F 10.4 °F 54% 30.16 in 10.0 mi NNW 10.4 mph - N/A   Clear
7:35 PM 23.7 °F 13.3 °F 10.8 °F 58% 30.17 in 10.0 mi North 10.4 mph - N/A   Clear
7:54 PM 22.5 °F 13.2 °F 10.2 °F 59% 30.18 in 10.0 mi NNW 8.1 mph - N/A   Mostly Cloudy
8:15 PM 21.9 °F 14.5 °F 9.7 °F 59% 30.19 in 10.0 mi North 5.8 mph - N/A   Scattered Clouds
8:35 PM 21.7 °F 14.3 °F 9.5 °F 59% 30.20 in 10.0 mi NNW 5.8 mph - N/A   Clear
8:54 PM 21.0 °F 12.4 °F 9.0 °F 60% 30.20 in 10.0 mi North 6.9 mph - N/A   Clear
9:15 PM 20.8 °F 13.2 °F 8.6 °F 59% 30.21 in 10.0 mi North 5.8 mph - N/A   Clear
9:35 PM 20.1 °F 12.3 °F 8.6 °F 61% 30.22 in 10.0 mi North 5.8 mph - N/A   Clear
9:55 PM 19.8 °F 14.7 °F 8.6 °F 62% 30.22 in 10.0 mi North 3.5 mph - N/A   Clear
10:15 PM 20.1 °F 12.3 °F 8.1 °F 60% 30.23 in 10.0 mi NNW 5.8 mph - N/A   Clear
10:35 PM 19.4 °F 11.5 °F 7.7 °F 60% 30.23 in 10.0 mi NNW 5.8 mph - N/A   Clear
10:55 PM 18.3 °F 11.5 °F 7.5 °F 63% 30.23 in 10.0 mi North 4.6 mph - N/A   Clear
11:15 PM 17.6 °F 10.7 °F 7.5 °F 65% 30.24 in 10.0 mi North 4.6 mph - N/A   Clear
11:35 PM 17.2 °F 8.9 °F 7.5 °F 66% 30.25 in 10.0 mi North 5.8 mph - N/A   Clear
11:55 PM 16.7 °F 8.3 °F 7.7 °F 68% 30.25 in 10.0 mi North 5.8 mph - N/A   Clear